Regional Weather Roundup
Issued by NWS Green Bay, WI

Home | Current Version | Previous Version | Graphics & Text | Print | Product List | Glossary Off
Versions: 1 2 3 4 5 6 7 8 9 10 11 12 13 14 15 16 17 18 19 20 21 22 23 24 25 26 27 28 29 30 31 32 33 34 35 36 37 38 39 40 41 42 43 44 45 46 47 48 49 50

196
ASUS43 KGRB 270711
RWRGRB

NORTH-CENTRAL AND NORTHEAST WISCONSIN REGIONAL WEATHER ROUNDUP
NATIONAL WEATHER SERVICE GREEN BAY WI
200 AM CDT FRI MAY 27 2016

WIZ005-009-010>012-018-019-270800-
NORTH CENTRAL WISCONSIN

CITY           SKY/WX    TMP DP  RH WIND       PRES   REMARKS
IRONWOOD       CLOUDY    57  55  94 CALM      29.85S
MANITOWISH WTR NOT AVBL
ARBOR VITAE    CLOUDY    59  56  90 CALM      29.89S
EAGLE RIVER      N/A     58  57  97 CALM      29.90R
LAND O LAKES   PTCLDY    56  56 100 CALM      29.90R
RHINELANDER    PTCLDY    60  56  86 W3        29.90R
PHILLIPS       PTCLDY    56  56  97 CALM      29.88S
ANTIGO         PTCLDY    54  54  98 CALM      29.90S
TOMAHAWK       MOCLDY    54  53  96 CALM      29.90S
MERRILL        CLOUDY    55  55 100 CALM      29.89F
$$

WIZ013-073-270800-
NORTHEAST WISCONSIN

CITY           SKY/WX    TMP DP  RH WIND       PRES   REMARKS
IRON MOUNTAIN  FOG       61  60  97 S3        29.87R VSB 1/2
MARINETTE      CLEAR     55  54  96 CALM      29.88R FOG
OCONTO           N/A     54  54 100 CALM      29.86S
$$

WIZ017-030-035>037-045-270800-
CENTRAL WISCONSIN

CITY           SKY/WX    TMP DP  RH WIND       PRES   REMARKS
MEDFORD        CLOUDY    57  57 100 S3        29.88S
WAUSAU         CLOUDY    61  58  90 E3        29.87R
MOSINEE        MOCLDY    57  57 100 CALM      29.89S
MARSHFIELD     PTCLDY    60  57  89 CALM      29.88R
WISC RAPIDS    PTCLDY    59  56  89 CALM      29.89S
STEVENS POINT  MOCLDY    55  54  98 CALM      29.88F
WAUPACA        CLEAR     60  60  99 CALM      29.87F
SHAWANO        CLEAR     60  58  91 CALM      29.88S
CLINTONVILLE   CLEAR     57  55  94 CALM      29.86S
WAUTOMA        PTCLDY    57  56  96 W3        29.88F
$$

WIZ038-039-048-051-270800-
FOX VALLEY

CITY           SKY/WX    TMP DP  RH WIND       PRES   REMARKS
NWS GREEN BAY  CLEAR     61  58  90 CALM      29.86S
APPLETON       CLEAR     63  54  72 CALM      29.85F
OSHKOSH        PTCLDY    60  55  83 CALM      29.86F
FOND DU LAC    CLOUDY    61  58  90 CALM      29.87S
$$

WIZ022-050-052-270800-
EAST CENTRAL WISCONSIN

CITY           SKY/WX    TMP DP  RH WIND       PRES   REMARKS
EPHRAIM        FAIR      60  56  88 S3        29.87R
STURGEON BAY   NOT AVBL
MANITOWOC      PTCLDY    58  57  97 CALM      29.87S
SHEBOYGAN      CLOUDY    59  57  93 CALM      29.87S
$$

LMZ563-521-522-541>543-270800-
LAKESHORE

STATION/POSITION TIME  TEMP    WIND        PRES    VSBY  WAVE
                       AIR SEA DIR/SP/G                  HT/PER
                 (UTC) (F)     (DEG/KT/KT) (MB)    (MI)  (FT/S)
SHEBOYGAN LKSHOR 0700   64     280/  2/  2 1011.7R
KEWAUNEE LKSHORE 0600                      1010.5F
ALGOMA MARINA    0602             CALM       N/A
NORTHPORT PIER   0600   53     140/  6/  6 1011.2S
N MID LAKE BUOY  0650   48 45  150/  8/ 10 1011.8R         1/ 5
SISTER BAY LKSHO 0649   61     160/  8/ 10   N/A
CHAMBERS ISLAND  0600   56      CALM  /  1 1011.2R
MENOMINEE LKSHOR 0600   61                 1010.2R
$$




USA.gov is the U.S. government's official web portal to all federal, state and local government web resources and services.